Time,TemperatureF,DewpointF,PressureIn,WindDirection,WindDirectionDegrees,WindSpeedMPH,WindSpeedGustMPH,Humidity,HourlyPrecipIn,Conditions,Clouds,dailyrainin,SoftwareType,DateUTC
2013-02-25 00:01:00,33.5,8.8,30.41,East,90,0.0,8.0,35,0.00,,---,0.00,VWS V13.01,2013-02-25 08:01:00,
2013-02-25 00:31:00,26.1,11.7,30.46,East,90,0.0,0.0,54,0.00,,---,0.00,VWS V13.01,2013-02-25 08:31:00,
2013-02-25 01:01:00,33.7,7.0,30.42,ESE,103,0.0,6.0,32,0.00,,---,0.00,VWS V13.01,2013-02-25 09:01:00,
2013-02-25 01:31:00,29.0,11.8,30.45,ESE,103,0.0,3.0,48,0.00,,---,0.00,VWS V13.01,2013-02-25 09:31:00,
2013-02-25 02:01:00,23.9,12.1,30.47,ESE,103,0.0,0.0,60,0.00,,---,0.00,VWS V13.01,2013-02-25 10:01:00,
2013-02-25 02:31:00,31.0,9.5,30.42,ESE,103,0.0,4.0,40,0.00,,---,0.00,VWS V13.01,2013-02-25 10:31:00,
2013-02-25 03:01:00,29.5,10.8,30.42,ESE,105,0.0,5.0,45,0.00,,---,0.00,VWS V13.01,2013-02-25 11:01:00,
2013-02-25 03:31:00,23.8,12.7,30.45,ESE,105,0.0,0.0,62,0.00,,---,0.00,VWS V13.01,2013-02-25 11:31:00,
2013-02-25 04:01:00,23.3,12.6,30.45,ESE,105,0.0,0.0,63,0.00,,---,0.00,VWS V13.01,2013-02-25 12:01:00,
2013-02-25 04:31:00,26.4,10.3,30.46,ESE,107,0.0,4.0,50,0.00,,---,0.00,VWS V13.01,2013-02-25 12:31:00,
2013-02-25 05:01:00,30.9,7.7,30.44,ESE,106,3.0,5.0,37,0.00,,---,0.00,VWS V13.01,2013-02-25 13:01:00,
2013-02-25 05:31:00,33.4,6.0,30.45,ESE,105,3.0,5.0,31,0.00,,---,0.00,VWS V13.01,2013-02-25 13:31:00,
2013-02-25 06:01:00,34.1,5.9,30.45,East,94,4.0,6.0,30,0.00,,---,0.00,VWS V13.01,2013-02-25 14:01:00,
2013-02-25 06:31:00,34.3,5.4,30.46,East,96,4.0,6.0,29,0.00,,---,0.00,VWS V13.01,2013-02-25 14:31:00,
2013-02-25 07:01:00,36.2,5.4,30.45,East,96,1.0,6.0,27,0.00,,---,0.00,VWS V13.01,2013-02-25 15:01:00,
2013-02-25 07:31:00,39.5,7.5,30.44,East,96,0.0,5.0,26,0.00,,---,0.00,VWS V13.01,2013-02-25 15:31:00,
2013-02-25 08:01:00,43.3,8.9,30.42,SSW,204,2.0,10.0,24,0.00,,---,0.00,VWS V13.01,2013-02-25 16:01:00,
2013-02-25 08:31:00,43.9,7.5,30.42,SSW,194,1.0,12.0,22,0.00,,---,0.00,VWS V13.01,2013-02-25 16:31:00,
2013-02-25 09:01:00,45.7,9.1,30.41,SSW,203,8.0,13.0,22,0.00,,---,0.00,VWS V13.01,2013-02-25 17:01:00,
2013-02-25 09:31:00,46.7,9.9,30.40,SSE,149,0.0,12.0,22,0.00,,---,0.00,VWS V13.01,2013-02-25 17:31:00,
2013-02-25 10:01:00,48.0,9.9,30.39,SE,132,1.0,12.0,21,0.00,,---,0.00,VWS V13.01,2013-02-25 18:01:00,
2013-02-25 10:31:00,48.9,10.7,30.40,ESE,110,3.0,11.0,21,0.00,,---,0.00,VWS V13.01,2013-02-25 18:31:00,
2013-02-25 11:01:00,49.9,13.6,30.39,ESE,115,0.0,7.0,23,0.00,,---,0.00,VWS V13.01,2013-02-25 19:01:00,
2013-02-25 13:01:00,55.9,20.6,30.30,NW,320,13.0,13.0,25,0.00,,---,0.00,VWS V13.01,2013-02-25 21:01:00,
2013-02-25 13:31:00,55.3,21.9,30.34,North,358,0.0,13.0,27,0.00,,---,0.00,VWS V13.01,2013-02-25 21:31:00,
2013-02-25 14:01:00,55.1,19.9,30.35,North,1,0.0,9.0,25,0.00,,---,0.00,VWS V13.01,2013-02-25 22:01:00,
2013-02-25 14:31:00,54.5,21.2,30.31,WSW,250,5.0,11.0,27,0.00,,---,0.00,VWS V13.01,2013-02-25 22:31:00,
2013-02-25 15:01:00,54.2,21.0,30.31,WSW,258,5.0,12.0,27,0.00,,---,0.00,VWS V13.01,2013-02-25 23:01:00,
2013-02-25 15:31:00,53.2,21.0,30.33,South,183,0.0,13.0,28,0.00,,---,0.00,VWS V13.01,2013-02-25 23:31:00,
2013-02-25 16:01:00,52.6,19.6,30.33,ENE,68,0.0,10.0,27,0.00,,---,0.00,VWS V13.01,2013-02-26 00:01:00,
2013-02-25 16:31:00,49.1,21.3,30.30,ESE,114,0.0,10.0,33,0.00,,---,0.00,VWS V13.01,2013-02-26 00:31:00,
2013-02-25 17:01:00,46.1,20.6,30.31,South,184,1.0,10.0,36,0.00,,---,0.00,VWS V13.01,2013-02-26 01:01:00,
2013-02-25 17:31:00,43.3,20.6,30.30,SSE,148,0.0,4.0,40,0.00,,---,0.00,VWS V13.01,2013-02-26 01:31:00,
2013-02-25 18:01:00,38.3,22.2,30.32,SSE,148,0.0,1.0,52,0.00,,---,0.00,VWS V13.01,2013-02-26 02:01:00,
2013-02-25 18:31:00,35.5,20.1,30.33,SSE,148,0.0,0.0,53,0.00,,---,0.00,VWS V13.01,2013-02-26 02:31:00,
2013-02-25 19:01:00,33.7,20.9,30.34,SSE,148,0.0,0.0,59,0.00,,---,0.00,VWS V13.01,2013-02-26 03:01:00,
2013-02-25 19:31:00,37.0,19.1,30.30,NE,49,4.0,7.0,48,0.00,,---,0.00,VWS V13.01,2013-02-26 03:31:00,
2013-02-25 20:01:00,35.8,19.9,30.30,NE,53,3.0,5.0,52,0.00,,---,0.00,VWS V13.01,2013-02-26 04:01:00,
2013-02-25 20:31:00,36.3,17.5,30.28,ENE,57,8.0,10.0,46,0.00,,---,0.00,VWS V13.01,2013-02-26 04:31:00,
2013-02-25 21:01:00,35.3,16.1,30.30,ENE,59,2.0,9.0,45,0.00,,---,0.00,VWS V13.01,2013-02-26 05:01:00,
2013-02-25 21:31:00,37.9,14.6,30.27,South,169,1.0,5.0,38,0.00,,---,0.00,VWS V13.01,2013-02-26 05:31:00,
2013-02-25 22:01:00,38.2,16.6,30.26,SSW,195,0.0,6.0,41,0.00,,---,0.00,VWS V13.01,2013-02-26 06:01:00,
2013-02-25 22:31:00,36.5,17.7,30.25,SSE,153,0.0,4.0,46,0.00,,---,0.00,VWS V13.01,2013-02-26 06:31:00,
2013-02-25 23:01:00,37.8,15.7,30.24,SSE,151,1.0,7.0,40,0.00,,---,0.00,VWS V13.01,2013-02-26 07:01:00,
2013-02-25 23:31:00,37.8,12.6,30.22,SSE,158,1.0,6.0,35,0.00,,---,0.00,VWS V13.01,2013-02-26 07:31:00,